Tiempo atmosférico en la estación meteorológica de Puntagorda, Santa Cruz de Tenerife (684 m.)



Fecha
DESCASC
Temp. máxima en grados centígrados (hora)
DESCASC
Temp. mínima en grados centígrados (hora)
DESCASC
Temp. media en grados centígrados
DESCASC
Racha de viento máxima en m/sg (hora)
DESCASC
Velocidad máxima media en intervalos de 10 minutos(hora)
DESCASC
Precipitaciones diarias en mm
DESCASC
Precipitaciones de 00:00 a 06:00 en mm
DESCASC
Precipitaciones de 06:00 a 12:00 en mm
DESCASC
Precipitaciones de 12:00 a 18:00 en mm
DESCASC
Precipitaciones de 18:00 a 24:00 en mm
DESCASC
26-08-2020 38.5 (13:10) 30.6 (00:00) 34.6 6.11 (15:10) 3.89 (10:40) 0 0 0 0 0
27-08-2020 36.9 (13:30) 29.5 (00:00) 33.2 7.22 (13:10) 3.33 (13:20) 0 0 0 0 0
28-08-2020 34.6 (11:40) 27 (00:00) 30.8 5.56 (23:59) 2.5 (17:00) 0 0 0 0 0
08-09-2020 34.3 (18:10) 26.7 (00:00) 30.5 5.83 (23:20) 3.33 (23:20) 0 0 0 0 0
23-08-2020 36.9 (12:20) 22.2 (00:00) 29.6 10.28 (13:10) 3.89 (13:10) 0 0 0 0 0
09-09-2020 32.9 (12:50) 26 (18:40) 29.5 10.56 (06:00) 4.72 (01:50) 0 0 0 0 0
25-08-2020 34 (19:00) 23.1 (00:00) 28.6 6.11 (22:50) 3.61 (23:00) 0 0 0 0 0
10-09-2020 32.1 (13:00) 22.6 (00:00) 27.3 9.44 (04:00) 4.72 (04:00) 0 0 0 0 0
24-08-2020 29.6 (14:20) 21.5 (07:40) 25.6 4.17 (13:00) 3.06 (13:00) 0 0 0 0 0
16-09-2020 29 (14:00) 21.8 (23:50) 25.4 17.22 (00:10) 10.28 (00:10) 0 0 0 0 0
29-08-2020 31.1 (01:20) 18.6 (00:00) 24.9 11.11 (20:50) 4.72 (01:10) 0 0 0 0 0
15-09-2020 30.1 (14:30) 19.8 (00:00) 24.9 19.72 (23:50) 10.83 (23:50) 0 0 0 0 0
21-09-2020 30.4 (16:30) 18.3 (00:00) 24.3 5.83 (00:50) 3.89 (09:40) 0 0 0 0 0
07-09-2020 30.6 (12:20) 16.9 (06:30) 23.8 9.72 (13:40) 5.83 (12:00) 0 0 0 0 0
11-09-2020 27.9 (18:10) 18.9 (00:00) 23.4 9.72 (10:00) 5.28 (07:10) 0 0 0 0 0
20-09-2020 26.6 (16:20) 18 (00:00) 22.3 4.17 (18:30) 3.06 (18:40) 0 0 0 0 0
04-09-2020 28.7 (11:20) 15.4 (00:00) 22.1 5 (22:50) 3.33 (20:10) 0 0 0 0 0
17-09-2020 25.6 (15:00) 17 (00:00) 21.3 11.11 (02:00) 6.39 (06:00) 0 0 0 0 0
03-09-2020 26.1 (19:10) 16.3 (00:00) 21.2 5.83 (13:40) 3.89 (13:50) 0 0 0 0 0
14-09-2020 24.6 (14:00) 16.8 (00:00) 20.7 6.11 (23:40) 3.89 (20:40) 0 0 0 0 0
06-09-2020 23.9 (18:10) 16.3 (00:00) 20.1 7.22 (10:00) 4.72 (01:00) 0 0 0 0 0
05-09-2020 23.4 (15:10) 16.5 (00:00) 19.9 8.33 (04:40) 5.83 (04:40) 0 0 0 0 0
19-09-2020 24.3 (16:10) 15.5 (00:00) 19.9 6.67 (16:50) 4.44 (17:00) 0 0 0 0 0
18-09-2020 23.2 (16:50) 16.1 (00:00) 19.7 12.5 (00:50) 6.67 (00:50) 0 0 0 0 0
12-09-2020 21.5 (18:30) 17.6 (22:50) 19.6 7.5 (14:30) 4.44 (14:30) 0.2 0 0 0.2 0
02-09-2020 23.2 (17:00) 15.3 (00:00) 19.3 5 (16:40) 3.06 (20:00) 0.2 0 0.2 0 0
13-09-2020 23 (16:20) 15.3 (00:00) 19.2 8.61 (12:10) 6.39 (14:00) 0 0 0 0 0
30-08-2020 22.9 (16:00) 15.3 (00:00) 19.1 19.17 (16:10) 8.33 (10:10) 0 0 0 0 0
01-09-2020 22.8 (16:50) 14.1 (00:00) 18.4 6.11 (13:20) 3.33 (13:50) 0 0 0 0 0
31-08-2020 22.1 (16:50) 14.3 (00:00) 18.2 6.11 (14:50) 3.61 (14:40) 0 0 0 0 0

Gráficas

Temp. máximas Temp. mínimas Temp. medias Precipitaciones Rachas de viento máximas Velocidades máximas media en intervalos de 10 minutos

Datos horarios

Fecha y hora oficial Temperatura (ºC) Velocidad del viento (km/h) Dirección del viento Racha (km/h) Dirección de racha Precipitación (mm) Presión (hPa) Tendencia (hPa) Humedad (%)
2020-09-21 23:00:00 23.2 2 Norte 7 Norte 0 -- -- 33
2020-09-21 22:00:00 23.4 4 Sudeste 12 Nordeste 0 -- -- 32
2020-09-21 21:00:00 23.3 3 Norte 7 Este 0 -- -- 33
2020-09-21 20:00:00 23.8 4 Sur 9 Sur 0 -- -- 68
2020-09-21 19:00:00 26 3 Sudoeste 8 Sudoeste 0 -- -- 23
2020-09-21 18:00:00 28.4 5 Oeste 16 Noroeste 0 -- -- 51
2020-09-21 17:00:00 29.6 7 Oeste 14 Noroeste 0 -- -- 32
2020-09-21 16:00:00 28.6 5 Sur 15 Noroeste 0 -- -- 49
2020-09-21 15:00:00 29.4 5 Oeste 16 Oeste 0 -- -- 33
2020-09-21 14:00:00 28.9 8 Sudoeste 13 Sudoeste 0 -- -- 34
2020-09-21 13:00:00 27.9 5 Sudoeste 13 Sudoeste 0 -- -- 23
2020-09-21 12:00:00 27.1 9 Sur 14 Sur 0 -- -- 29
2020-09-21 11:00:00 26.1 9 Sudoeste 15 Sur 0 -- -- 20
2020-09-21 10:00:00 25.5 11 Sur 19 Sur 0 -- -- 24
2020-09-21 09:00:00 22.1 6 Sudeste 8 Este 0 -- -- 26
2020-09-21 08:00:00 21.4 3 Sudeste 8 Sudeste 0 -- -- 32
2020-09-21 07:00:00 21.1 4 Sudeste 10 Sur 0 -- -- 31
2020-09-21 06:00:00 20.2 4 Sudeste 11 Sudeste 0 -- -- 40
2020-09-21 05:00:00 20.8 3 Sudeste 9 Sudeste 0 -- -- 40
2020-09-21 04:00:00 20.9 5 Sudeste 9 Sudeste 0 -- -- 47
2020-09-21 03:00:00 22.2 0 Calma 9 Nordeste 0 -- -- 34
2020-09-21 02:00:00 22.6 5 Nordeste 15 Norte 0 -- -- 25
2020-09-21 01:00:00 21.2 6 Nordeste 21 Nordeste 0 -- -- 27
2020-09-21 00:00:00 18.3 2 Nordeste 10 Nordeste 0 -- -- 41
2020-09-20 23:00:00 18.8 0 Calma 11 Nordeste 0 -- -- 87
2020-09-20 22:00:00 18.9 0 Calma 8 Sur 0 -- -- 89
2020-09-20 21:00:00 19.8 2 Este 10 Oeste 0 -- -- 80
2020-09-20 20:00:00 21.3 4 Noroeste 10 Noroeste 0 -- -- 77
2020-09-20 19:00:00 22.2 7 Sur 15 Sur 0 -- -- 72
2020-09-20 18:00:00 23.9 9 Sudoeste 14 Sur 0 -- -- 64
2020-09-20 17:00:00 25.4 8 Sudoeste 12 Sudoeste 0 -- -- 51
2020-09-20 16:00:00 26.2 6 Sur 12 Sudoeste 0 -- -- 59
2020-09-20 15:00:00 24.8 6 Sudoeste 14 Sudoeste 0 -- -- 66
2020-09-20 14:00:00 24.4 5 Sudoeste 14 Sudoeste 0 -- -- 66
2020-09-20 13:00:00 23.9 5 Oeste 10 Sudoeste 0 -- -- 67
2020-09-20 12:00:00 22.8 6 Sur 11 Sudoeste 0 -- -- 70
2020-09-20 11:00:00 25.9 6 Sudoeste 9 Sudoeste 0 -- -- 43
2020-09-20 10:00:00 25.3 7 Sur 12 Sur 0 -- -- 13
2020-09-20 09:00:00 20.3 3 Sudeste 9 Sudeste 0 -- -- 20
2020-09-20 08:00:00 19.4 0 Calma 7 Sur 0 -- -- 31
2020-09-20 07:00:00 19.4 0 Calma 8 Sur 0 -- -- 28
2020-09-20 06:00:00 19.5 5 Sur 9 Sur 0 -- -- 28
2020-09-20 05:00:00 19.8 0 Calma 9 Sudeste 0 -- -- 29
2020-09-20 04:00:00 19.6 4 Sudeste 7 Sudeste 0 -- -- 29
2020-09-20 03:00:00 19 2 Sudeste 10 Sur 0 -- -- 36
2020-09-20 02:00:00 19.7 5 Sur 9 Sudeste 0 -- -- 35
2020-09-20 01:00:00 19.1 4 Sudeste 10 Sudeste 0 -- -- 36
2020-09-20 00:00:00 18.2 5 Sur 10 Sur 0 -- -- 80
2020-09-19 23:00:00 17.6 2 Sur 13 Sur 0 -- -- 91
2020-09-19 22:00:00 17.9 5 Sur 10 Sur 0 -- -- 92
2020-09-19 21:00:00 18.4 4 Sudeste 17 Norte 0 -- -- 89
2020-09-19 20:00:00 18.9 4 Sur 18 Sur 0 -- -- 88
2020-09-19 19:00:00 20.1 12 Sur 19 Sudoeste 0 -- -- 82
2020-09-19 18:00:00 22.4 10 Sudoeste 21 Sudoeste 0 -- -- 67
2020-09-19 17:00:00 23.3 16 Sudoeste 24 Sudoeste 0 -- -- 60
2020-09-19 16:00:00 24.2 15 Sudoeste 22 Sur 0 -- -- 41
2020-09-19 15:00:00 24.1 6 Sudoeste 13 Sur 0 -- -- 60
2020-09-19 14:00:00 22.1 8 Sudoeste 20 Sur 0 -- -- 70
2020-09-19 13:00:00 20.3 11 Sur 18 Sudoeste 0 -- -- 79
2020-09-19 12:00:00 20 7 Noroeste 14 Oeste 0 -- -- 79
2020-09-19 11:00:00 19 5 Oeste 11 Noroeste 0 -- -- 81
2020-09-19 10:00:00 17.8 3 Sur 11 Sur 0 -- -- 86
2020-09-19 09:00:00 16.1 2 Norte 10 Nordeste 0 -- -- 74
2020-09-19 08:00:00 16.1 3 Sudeste 12 Sur 0 -- -- 61
2020-09-19 07:00:00 17 5 Sur 8 Sudoeste 0 -- -- 59
2020-09-19 06:00:00 16 3 Este 9 Nordeste 0 -- -- 73
2020-09-19 05:00:00 15.8 4 Nordeste 6 Este 0 -- -- 84
2020-09-19 04:00:00 15.8 3 Sudeste 9 Sudeste 0 -- -- 84
2020-09-19 03:00:00 17.1 5 Sur 10 Sur 0 -- -- 90
2020-09-19 02:00:00 17.2 2 Sudeste 6 Sudoeste 0 -- -- 86
2020-09-19 01:00:00 17.4 6 Sur 9 Sur 0 -- -- 92
2020-09-19 00:00:00 17.4 0 Calma 13 Sudoeste 0 -- -- 89
2020-09-18 23:00:00 17.6 8 Sur 11 Sur 0 -- -- 91
2020-09-18 22:00:00 17.8 6 Sur 9 Sur 0 -- -- 90
2020-09-18 21:00:00 18.2 5 Sur 8 Sudoeste 0 -- -- 85
2020-09-18 20:00:00 20.2 4 Sudoeste 15 Sudoeste 0 -- -- 72
2020-09-18 19:00:00 22.1 7 Sudoeste 16 Sudoeste 0 -- -- 65
2020-09-18 18:00:00 22.6 8 Oeste 17 Sur 0 -- -- 63
2020-09-18 17:00:00 23.2 5 Noroeste 19 Oeste 0 -- -- 62
2020-09-18 16:00:00 22.5 9 Oeste 19 Oeste 0 -- -- 65
2020-09-18 15:00:00 22.1 10 Oeste 19 Oeste 0 -- -- 64
2020-09-18 14:00:00 21.4 8 Sudoeste 21 Nordeste 0 -- -- 67
2020-09-18 13:00:00 20.8 15 Norte 28 Norte 0 -- -- 76
2020-09-18 12:00:00 20.3 10 Norte 22 Nordeste 0 -- -- 74
2020-09-18 11:00:00 19.6 13 Norte 25 Norte 0 -- -- 73
2020-09-18 10:00:00 18.6 9 Norte 21 Norte 0 -- -- 70
2020-09-18 09:00:00 16.9 14 Nordeste 27 Nordeste 0 -- -- 76
2020-09-18 08:00:00 16.4 3 Nordeste 20 Sudeste 0 -- -- 74
2020-09-18 07:00:00 16.6 10 Nordeste 26 Nordeste 0 -- -- 76
2020-09-18 06:00:00 16.8 15 Nordeste 27 Nordeste 0 -- -- 70
2020-09-18 05:00:00 16.5 4 Sudeste 28 Nordeste 0 -- -- 69
2020-09-18 04:00:00 17.1 15 Nordeste 28 Nordeste 0 -- -- 64
2020-09-18 03:00:00 17.6 4 Sudeste 39 Nordeste 0 -- -- 59
2020-09-18 02:00:00 16.9 18 Nordeste 37 Nordeste 0 -- -- 79
2020-09-18 01:00:00 17.3 21 Nordeste 45 Nordeste 0 -- -- 76
2020-09-18 00:00:00 17.2 21 Nordeste 37 Nordeste 0 -- -- 75
2020-09-17 23:00:00 17.1 20 Nordeste 35 Nordeste 0 -- -- 79
2020-09-17 22:00:00 17.3 16 Nordeste 29 Nordeste 0 -- -- 65
2020-09-17 21:00:00 17.5 16 Nordeste 30 Nordeste 0 -- -- 68
2020-09-17 20:00:00 18.5 14 Nordeste 31 Nordeste 0 -- -- 76
2020-09-17 19:00:00 20.2 19 Nordeste 35 Norte 0 -- -- 69
2020-09-17 18:00:00 21.5 21 Nordeste 37 Norte 0 -- -- 63
2020-09-17 17:00:00 23.8 14 Nordeste 26 Norte 0 -- -- 56
2020-09-17 16:00:00 23.7 17 Nordeste 27 Norte 0 -- -- 57
2020-09-17 15:00:00 25.6 9 Nordeste 21 Este 0 -- -- 50
2020-09-17 14:00:00 23.9 6 Oeste 21 Norte 0 -- -- 66
2020-09-17 13:00:00 23.5 11 Nordeste 23 Norte 0 -- -- 46
2020-09-17 12:00:00 22 11 Nordeste 26 Norte 0 -- -- 58
2020-09-17 11:00:00 21.2 11 Norte 25 Nordeste 0 -- -- 66
2020-09-17 10:00:00 21.7 15 Nordeste 26 Nordeste 0 -- -- 47
2020-09-17 09:00:00 19.9 16 Nordeste 28 Nordeste 0 -- -- 59
2020-09-17 08:00:00 19.2 16 Nordeste 27 Nordeste 0 -- -- 69
2020-09-17 07:00:00 19.5 22 Nordeste 32 Nordeste 0 -- -- 67
2020-09-17 06:00:00 19 23 Nordeste 33 Este 0 -- -- 76
2020-09-17 05:00:00 21.2 4 Norte 27 Nordeste 0 -- -- 63
2020-09-17 04:00:00 23.5 12 Nordeste 32 Nordeste 0 -- -- 47
2020-09-17 03:00:00 19.2 15 Nordeste 33 Norte 0 -- -- 84
2020-09-17 02:00:00 20.3 23 Nordeste 40 Norte 0 -- -- 74
2020-09-17 01:00:00 19.8 19 Nordeste 35 Este 0 -- -- 77
2020-09-17 00:00:00 22.3 12 Este 21 Nordeste 0 -- -- 55
2020-09-16 23:00:00 23.3 5 Norte 17 Nordeste 0 -- -- 51
2020-09-16 22:00:00 24 8 Nordeste 21 Nordeste 0 -- -- 50
2020-09-16 21:00:00 24.3 7 Norte 23 Nordeste 0 -- -- 48
2020-09-16 20:00:00 24.1 12 Nordeste 26 Este 0 -- -- 69
2020-09-16 19:00:00 26.3 6 Norte 18 Noroeste 0 -- -- 40
2020-09-16 18:00:00 26.1 5 Norte 19 Norte 0 -- -- 57
2020-09-16 17:00:00 27.7 8 Norte 17 Nordeste 0 -- -- 38
2020-09-16 16:00:00 27.8 10 Norte 25 Nordeste 0 -- -- 37
2020-09-16 15:00:00 27.8 9 Nordeste 20 Norte 0 -- -- 38
2020-09-16 14:00:00 29 9 Nordeste 26 Nordeste 0 -- -- 36
2020-09-16 13:00:00 27.9 12 Norte 30 Norte 0 -- -- 38
2020-09-16 12:00:00 27.6 18 Norte 32 Nordeste 0 -- -- 39
2020-09-16 11:00:00 26.6 14 Nordeste 24 Nordeste 0 -- -- 41
2020-09-16 10:00:00 24.7 11 Este 28 Norte 0 -- -- 46
2020-09-16 09:00:00 25.5 14 Nordeste 30 Este 0 -- -- 41
2020-09-16 08:00:00 24.2 13 Este 49 Nordeste 0 -- -- 46
2020-09-16 07:00:00 25.3 18 Nordeste 58 Este 0 -- -- 44
2020-09-16 06:00:00 24.6 19 Nordeste 57 Nordeste 0 -- -- 44
2020-09-16 05:00:00 25.2 20 Nordeste 54 Nordeste 0 -- -- 42
2020-09-16 04:00:00 24.8 32 Nordeste 58 Nordeste 0 -- -- 42
2020-09-16 03:00:00 25.3 20 Nordeste 54 Nordeste 0 -- -- 40
2020-09-16 02:00:00 24.9 32 Nordeste 57 Nordeste 0 -- -- 41
2020-09-16 01:00:00 25.3 23 Nordeste 62 Nordeste 0 -- -- 40
2020-09-16 00:00:00 25.8 33 Nordeste 71 Este 0 -- -- 39
2020-09-15 23:00:00 26 24 Nordeste 58 Nordeste 0 -- -- 37
2020-09-15 22:00:00 26.1 26 Nordeste 59 Nordeste 0 -- -- 37
2020-09-15 21:00:00 25.9 37 Nordeste 63 Nordeste 0 -- -- 38
2020-09-15 20:00:00 25.9 17 Nordeste 44 Nordeste 0 -- -- 38
2020-09-15 19:00:00 25.6 26 Nordeste 43 Nordeste 0 -- -- 40
2020-09-15 18:00:00 26.6 22 Nordeste 39 Nordeste 0 -- -- 37
2020-09-15 17:00:00 28 17 Nordeste 35 Nordeste 0 -- -- 35
2020-09-15 16:00:00 27.6 15 Noroeste 32 Norte 0 -- -- 48
2020-09-15 15:00:00 29.9 15 Nordeste 31 Nordeste 0 -- -- 31
2020-09-15 14:00:00 27.6 17 Nordeste 30 Norte 0 -- -- 38
2020-09-15 13:00:00 26 10 Norte 32 Norte 0 -- -- 51
2020-09-15 12:00:00 26.9 17 Norte 35 Norte 0 -- -- 37
2020-09-15 11:00:00 25.9 15 Nordeste 30 Nordeste 0 -- -- 35
2020-09-15 10:00:00 26.2 16 Norte 34 Norte 0 -- -- 33
2020-09-15 09:00:00 27.3 15 Norte 31 Nordeste 0 -- -- 31
2020-09-15 08:00:00 26.3 14 Nordeste 31 Nordeste 0 -- -- 32
2020-09-15 07:00:00 25.6 15 Nordeste 31 Este 0 -- -- 30
2020-09-15 06:00:00 25.1 12 Nordeste 29 Este 0 -- -- 29
2020-09-15 05:00:00 24.4 13 Nordeste 26 Nordeste 0 -- -- 28
2020-09-15 04:00:00 23.8 13 Nordeste 30 Nordeste 0 -- -- 30
2020-09-15 03:00:00 21.2 7 Nordeste 15 Nordeste 0 -- -- 51
2020-09-15 02:00:00 20.1 7 Este 14 Nordeste 0 -- -- 65
2020-09-15 01:00:00 20.4 6 Sur 15 Sudoeste 0 -- -- 86
2020-09-15 00:00:00 20.5 10 Este 22 Nordeste 0 -- -- 62
2020-09-14 23:00:00 19.1 12 Sur 19 Sudoeste 0 -- -- 94
2020-09-14 22:00:00 19.6 3 Sur 6 Norte 0 -- -- 90
2020-09-14 21:00:00 19.5 6 Sudoeste 21 Sudoeste 0 -- -- 90
2020-09-14 20:00:00 19.9 4 Sudoeste 16 Sur 0 -- -- 88
2020-09-14 19:00:00 21.7 5 Norte 18 Sudoeste 0 -- -- 82
2020-09-14 18:00:00 22.6 10 Sudoeste 17 Sur 0 -- -- 77
2020-09-14 17:00:00 23.7 8 Sudoeste 16 Sudoeste 0 -- -- 71
2020-09-14 16:00:00 23.5 7 Oeste 17 Sudoeste 0 -- -- 66
2020-09-14 15:00:00 23.9 9 Sudoeste 15 Sudoeste 0 -- -- 59
2020-09-14 14:00:00 24.6 8 Noroeste 20 Noroeste 0 -- -- 55
2020-09-14 13:00:00 23.9 12 Noroeste 20 Noroeste 0 -- -- 57
2020-09-14 12:00:00 23.2 7 Noroeste 19 Norte 0 -- -- 64
2020-09-14 11:00:00 22.3 8 Norte 15 Nordeste 0 -- -- 60
2020-09-14 10:00:00 20.7 6 Nordeste 14 Nordeste 0 -- -- 64
2020-09-14 09:00:00 18.1 10 Nordeste 14 Nordeste 0 -- -- 71
2020-09-14 08:00:00 16.8 0 Calma 14 Sur 0 -- -- 72
2020-09-14 07:00:00 17.7 7 Nordeste 12 Nordeste 0 -- -- 72
2020-09-14 06:00:00 17.6 8 Nordeste 13 Nordeste 0 -- -- 72
2020-09-14 05:00:00 17.9 7 Nordeste 12 Nordeste 0 -- -- 70
2020-09-14 04:00:00 18.3 8 Nordeste 17 Nordeste 0 -- -- 69
2020-09-14 03:00:00 17.8 8 Nordeste 13 Nordeste 0 -- -- 70
2020-09-14 02:00:00 17.3 9 Nordeste 13 Nordeste 0 -- -- 71
2020-09-14 01:00:00 17.4 6 Nordeste 9 Nordeste 0 -- -- 73
2020-09-14 00:00:00 18.1 3 Nordeste 13 Este 0 -- -- 70
2020-09-13 23:00:00 17.9 9 Nordeste 15 Nordeste 0 -- -- 71
2020-09-13 22:00:00 18.1 8 Nordeste 11 Nordeste 0 -- -- 73
2020-09-13 21:00:00 19.1 3 Nordeste 12 Norte 0 -- -- 73
2020-09-13 20:00:00 20.9 8 Norte 13 Norte 0 -- -- 65
2020-09-13 19:00:00 22.7 6 Noroeste 14 Oeste 0 -- -- 55
2020-09-13 18:00:00 22.5 8 Sudoeste 17 Oeste 0 -- -- 61
2020-09-13 17:00:00 22.4 10 Oeste 20 Sudoeste 0 -- -- 63
2020-09-13 16:00:00 22.8 12 Sudoeste 26 Sur 0 -- -- 60
2020-09-13 15:00:00 22.2 15 Sudoeste 29 Sudoeste 0 -- -- 64
2020-09-13 14:00:00 21 23 Sur 30 Sur 0 -- -- 76
2020-09-13 13:00:00 20.9 21 Sur 31 Sur 0 -- -- 76
2020-09-13 12:00:00 19.8 21 Sur 28 Sur 0 -- -- 84
2020-09-13 11:00:00 19.3 18 Sur 26 Sur 0 -- -- 82
2020-09-13 10:00:00 18.4 10 Sur 15 Sur 0 -- -- 80
2020-09-13 09:00:00 16.3 3 Sudeste 10 Sudeste 0 -- -- 76
2020-09-13 08:00:00 15.7 3 Sudeste 6 Sudeste 0 -- -- 74
2020-09-13 07:00:00 15.5 2 Sudeste 8 Sudeste 0 -- -- 77
2020-09-13 06:00:00 15.6 5 Sudeste 8 Sur 0 -- -- 85
2020-09-13 05:00:00 15.6 5 Sudeste 9 Sudeste 0 -- -- 86
2020-09-13 04:00:00 16.3 0 Calma 5 Este 0 -- -- 89
2020-09-13 03:00:00 17.3 2 Sudeste 5 Sur 0 -- -- 90
2020-09-13 02:00:00 17.8 2 Sur 9 Sudoeste 0 -- -- 92
2020-09-13 01:00:00 17.8 4 Sur 8 Sur 0 -- -- 92
2020-09-13 00:00:00 17.9 3 Sur 5 Sur 0 -- -- 93
2020-09-12 23:00:00 17.7 0 Calma 6 Sur 0 -- -- 91
2020-09-12 22:00:00 18 5 Sur 10 Sur 0 -- -- 90
2020-09-12 21:00:00 18.7 0 Calma 7 Oeste 0 -- -- 85
2020-09-12 20:00:00 19.6 7 Sur 17 Sur 0 -- -- 81
2020-09-12 19:00:00 20.4 4 Sudoeste 19 Oeste 0 -- -- 83
2020-09-12 18:00:00 20.7 6 Sur 14 Sudoeste 0 -- -- 81
2020-09-12 17:00:00 20.3 6 Oeste 17 Sur 0 -- -- 82
2020-09-12 16:00:00 20.3 10 Sur 23 Sudoeste 0 -- -- 82
2020-09-12 15:00:00 19 13 Sur 27 Sur 0 -- -- 94
2020-09-12 14:00:00 18.3 13 Sur 23 Sur 0.2 -- -- 95
2020-09-12 13:00:00 19.1 8 Sudoeste 20 Oeste 0 -- -- 89
2020-09-12 12:00:00 19 9 Sur 16 Sur 0 -- -- 92
2020-09-12 11:00:00 19.2 5 Sudoeste 16 Sur 0 -- -- 90
2020-09-12 10:00:00 18.9 4 Norte 9 Noroeste 0 -- -- 87
2020-09-12 09:00:00 18.2 4 Sur 13 Oeste 0 -- -- 92
2020-09-12 08:00:00 17.8 5 Sudeste 17 Sur 0 -- -- 92
2020-09-12 07:00:00 17.8 4 Este 16 Nordeste 0 -- -- 85
2020-09-12 06:00:00 18 5 Sur 9 Sur 0 -- -- 91
2020-09-12 05:00:00 18.1 5 Sudoeste 12 Sur 0 -- -- 91
2020-09-12 04:00:00 18.4 3 Noroeste 14 Norte 0 -- -- 88
2020-09-12 03:00:00 19 3 Este 15 Nordeste 0 -- -- 84
2020-09-12 02:00:00 19.4 5 Nordeste 15 Norte 0 -- -- 66
2020-09-12 01:00:00 19.9 10 Nordeste 20 Nordeste 0 -- -- 59
2020-09-12 00:00:00 18.9 6 Nordeste 24 Norte 0 -- -- 83
2020-09-11 23:00:00 20.9 12 Nordeste 22 Nordeste 0 -- -- 69
2020-09-11 22:00:00 23.3 12 Norte 18 Norte 0 -- -- 42
2020-09-11 21:00:00 22.9 8 Nordeste 18 Este 0 -- -- 56
2020-09-11 20:00:00 20.3 6 Este 14 Este 0 -- -- 68
2020-09-11 19:00:00 22.3 5 Sudoeste 19 Norte 0 -- -- 76
2020-09-11 18:00:00 27.7 10 Norte 20 Norte 0 -- -- 30
2020-09-11 17:00:00 24.7 3 Noroeste 15 Oeste 0 -- -- 63
2020-09-11 16:00:00 24.5 7 Sudoeste 14 Sudoeste 0 -- -- 67
2020-09-11 15:00:00 22.9 8 Sur 16 Nordeste 0 -- -- 75
2020-09-11 14:00:00 21.7 6 Oeste 12 Oeste 0 -- -- 79
2020-09-11 13:00:00 21.2 5 Oeste 14 Noroeste 0 -- -- 81
2020-09-11 12:00:00 22.7 7 Oeste 13 Oeste 0 -- -- 69
2020-09-11 11:00:00 24.2 8 Oeste 30 Nordeste 0 -- -- 66
2020-09-11 10:00:00 24.9 17 Norte 35 Nordeste 0 -- -- 32
2020-09-11 09:00:00 22.6 12 Norte 25 Norte 0 -- -- 45
2020-09-11 08:00:00 24.5 13 Norte 34 Norte 0 -- -- 35
2020-09-11 07:00:00 22.9 15 Norte 27 Norte 0 -- -- 34
2020-09-11 06:00:00 23.2 12 Nordeste 24 Norte 0 -- -- 25
2020-09-11 05:00:00 22.9 10 Norte 22 Nordeste 0 -- -- 26
2020-09-11 04:00:00 21.3 5 Nordeste 17 Nordeste 0 -- -- 37
2020-09-11 03:00:00 22.3 5 Nordeste 14 Este 0 -- -- 34
2020-09-11 02:00:00 23 0 Calma 14 Nordeste 0 -- -- 50
2020-09-11 01:00:00 20.6 10 Nordeste 17 Este 0 -- -- 61
2020-09-11 00:00:00 23.1 6 Norte 20 Norte 0 -- -- 54
2020-09-10 23:00:00 27 8 Noroeste 27 Norte 0 -- -- 54
2020-09-10 22:00:00 27.4 12 Nordeste 24 Norte 0 -- -- 24
2020-09-10 21:00:00 27 13 Norte 29 Norte 0 -- -- 25
2020-09-10 20:00:00 28 14 Norte 26 Norte 0 -- -- 33
2020-09-10 19:00:00 30.8 10 Norte 25 Norte 0 -- -- 35
2020-09-10 18:00:00 29.5 8 Sur 16 Sur 0 -- -- 32
2020-09-10 17:00:00 26.4 4 Sudoeste 15 Sudoeste 0 -- -- 65
2020-09-10 16:00:00 26.7 7 Noroeste 17 Nordeste 0 -- -- 64
2020-09-10 15:00:00 24.7 8 Sudoeste 18 Noroeste 0 -- -- 71
2020-09-10 14:00:00 29.9 6 Sur 14 Sur 0 -- -- 47
2020-09-10 13:00:00 32.1 7 Norte 14 Oeste 0 -- -- 30
2020-09-10 12:00:00 31.7 5 Sudoeste 13 Noroeste 0 -- -- 33
2020-09-10 11:00:00 30.7 6 Oeste 13 Norte 0 -- -- 33
2020-09-10 10:00:00 29.3 5 Sur 9 Sur 0 -- -- 26
2020-09-10 09:00:00 26.5 2 Sur 9 Sudeste 0 -- -- 29
2020-09-10 08:00:00 27.1 2 Sudoeste 31 Este 0 -- -- 28
2020-09-10 07:00:00 26.2 5 Nordeste 13 Este 0 -- -- 30
2020-09-10 06:00:00 27.5 2 Sur 29 Este 0 -- -- 28
2020-09-10 05:00:00 28.8 13 Nordeste 30 Nordeste 0 -- -- 28
2020-09-10 04:00:00 28.6 17 Nordeste 34 Nordeste 0 -- -- 28
2020-09-10 03:00:00 26.6 4 Sur 7 Este 0 -- -- 29
2020-09-10 02:00:00 25.9 4 Este 6 Este 0 -- -- 30
2020-09-10 01:00:00 26.1 5 Sudeste 11 Sudeste 0 -- -- 30
2020-09-10 00:00:00 26.7 4 Nordeste 7 Norte 0 -- -- 30
2020-09-09 23:00:00 26.7 3 Nordeste 13 Sudeste 0 -- -- 30
2020-09-09 22:00:00 27.4 8 Sudeste 13 Norte 0 -- -- 29
2020-09-09 21:00:00 27.4 7 Nordeste 11 Nordeste 0 -- -- 32
2020-09-09 20:00:00 30.4 6 Sudoeste 10 Sudoeste 0 -- -- 36
2020-09-09 19:00:00 26.8 6 Sur 13 Sudoeste 0 -- -- 54
2020-09-09 18:00:00 29.4 6 Sudoeste 16 Noroeste 0 -- -- 46
2020-09-09 17:00:00 29.8 7 Noroeste 15 Sudoeste 0 -- -- 46
2020-09-09 16:00:00 29.1 9 Sur 15 Sur 0 -- -- 43
2020-09-09 15:00:00 30.4 9 Sur 17 Sudoeste 0 -- -- 36
2020-09-09 14:00:00 31.8 8 Sudoeste 15 Oeste 0 -- -- 34
2020-09-09 13:00:00 32.5 8 Sudoeste 15 Sudoeste 0 -- -- 28
2020-09-09 12:00:00 32.5 8 Sur 14 Sur 0 -- -- 24
2020-09-09 11:00:00 31.6 8 Sur 12 Oeste 0 -- -- 24
2020-09-09 10:00:00 30.5 5 Sudoeste 10 Sudoeste 0 -- -- 27
2020-09-09 09:00:00 28.6 4 Sur 15 Sur 0 -- -- 30
2020-09-09 08:00:00 28.5 5 Sur 21 Sudeste 0 -- -- 30
2020-09-09 07:00:00 29.4 8 Este 28 Este 0 -- -- 27
2020-09-09 06:00:00 31.1 13 Este 38 Este 0 -- -- 25
2020-09-09 05:00:00 29.9 9 Este 23 Este 0 -- -- 27
2020-09-09 04:00:00 29.1 5 Sudeste 19 Este 0 -- -- 29
2020-09-09 03:00:00 29.5 7 Nordeste 19 Este 0 -- -- 28
2020-09-09 02:00:00 30.5 15 Nordeste 30 Nordeste 0 -- -- 28
2020-09-09 01:00:00 28.6 7 Sudeste 12 Este 0 -- -- 30
2020-09-09 00:00:00 29.3 3 Sur 21 Este 0 -- -- 30
2020-09-08 23:00:00 29.3 11 Este 19 Nordeste 0 -- -- 29
2020-09-08 22:00:00 28.8 6 Sudeste 9 Sudeste 0 -- -- 31
2020-09-08 21:00:00 29.5 5 Nordeste 9 Nordeste 0 -- -- 32
2020-09-08 20:00:00 31.3 4 Sur 8 Sudoeste 0 -- -- 30
2020-09-08 19:00:00 33.3 5 Sudoeste 12 Sur 0 -- -- 31
2020-09-08 18:00:00 33.8 7 Sudoeste 14 Sudoeste 0 -- -- 25
2020-09-08 17:00:00 33 7 Sudoeste 13 Sudoeste 0 -- -- 30
2020-09-08 16:00:00 33.1 7 Sudoeste 14 Sur 0 -- -- 33
2020-09-08 15:00:00 33.7 8 Sudoeste 16 Sur 0 -- -- 29
2020-09-08 14:00:00 33 8 Oeste 14 Sudoeste 0 -- -- 29
2020-09-08 13:00:00 32.9 8 Oeste 13 Oeste 0 -- -- 29
2020-09-08 12:00:00 32.3 8 Sudoeste 12 Sur 0 -- -- 29
2020-09-08 11:00:00 32 6 Sur 10 Sudoeste 0 -- -- 29
2020-09-08 10:00:00 30.6 4 Sur 7 Sur 0 -- -- 31
2020-09-08 09:00:00 27.9 4 Sudeste 6 Este 0 -- -- 36
2020-09-08 08:00:00 27.9 0 Calma 8 Sudoeste 0 -- -- 35
2020-09-08 07:00:00 27.8 0 Calma 6 Nordeste 0 -- -- 35
2020-09-08 06:00:00 27.5 0 Calma 4 Nordeste 0 -- -- 36
2020-09-08 05:00:00 27.1 0 Calma 9 Sudeste 0 -- -- 37
2020-09-08 04:00:00 26.8 6 Sudeste 9 Sudeste 0 -- -- 37
2020-09-08 03:00:00 27.2 3 Nordeste 6 Este 0 -- -- 37
2020-09-08 02:00:00 27.5 3 Nordeste 7 Este 0 -- -- 37
2020-09-08 01:00:00 27.4 3 Sudeste 13 Sudeste 0 -- -- 37
2020-09-08 00:00:00 27.7 3 Sur 10 Sudeste 0 -- -- 37
2020-09-07 23:00:00 27.2 8 Sudeste 12 Sudeste 0 -- -- 38
2020-09-07 22:00:00 27.2 8 Este 10 Este 0 -- -- 38
2020-09-07 21:00:00 27.5 0 Calma 6 Este 0 -- -- 38
2020-09-07 20:00:00 28.9 3 Sur 10 Sur 0 -- -- 36
2020-09-07 19:00:00 30.5 9 Sudoeste 15 Sur 0 -- -- 37
2020-09-07 18:00:00 28.1 3 Sur 12 Sudoeste 0 -- -- 42
2020-09-07 17:00:00 27.2 6 Sur 17 Sur 0 -- -- 46
2020-09-07 16:00:00 27.2 5 Sudoeste 13 Sudoeste 0 -- -- 49
2020-09-07 15:00:00 26.2 6 Oeste 17 Sur 0 -- -- 53
2020-09-07 14:00:00 25 9 Sudoeste 35 Sur 0 -- -- 60
2020-09-07 13:00:00 28.9 13 Sur 29 Sur 0 -- -- 40
2020-09-07 12:00:00 30 21 Sur 34 Sur 0 -- -- 33
2020-09-07 11:00:00 26.8 4 Sudoeste 15 Nordeste 0 -- -- 35
2020-09-07 10:00:00 23.9 4 Norte 14 Sur 0 -- -- 39
2020-09-07 09:00:00 22.3 5 Sur 17 Sur 0 -- -- 38
2020-09-07 08:00:00 20.1 2 Sudeste 17 Nordeste 0 -- -- 46
2020-09-07 07:00:00 18.5 9 Nordeste 15 Nordeste 0 -- -- 58
2020-09-07 06:00:00 17.4 0 Calma 18 Sur 0 -- -- 87
2020-09-07 05:00:00 18.7 6 Sudoeste 13 Sur 0 -- -- 84
2020-09-07 04:00:00 17.1 2 Este 7 Oeste 0 -- -- 73
2020-09-07 03:00:00 17.8 6 Sur 11 Sur 0 -- -- 92
2020-09-07 02:00:00 17.7 6 Sur 10 Sur 0 -- -- 92
2020-09-07 01:00:00 18 3 Sudeste 8 Sur 0 -- -- 69
2020-09-07 00:00:00 18.1 4 Sur 8 Sur 0 -- -- 90
2020-09-06 23:00:00 18.6 3 Sudeste 7 Sur 0 -- -- 76
2020-09-06 22:00:00 18.8 0 Calma 6 Sudoeste 0 -- -- 84
2020-09-06 21:00:00 19.3 5 Sur 8 Sur 0 -- -- 83
2020-09-06 20:00:00 21.4 5 Noroeste 14 Sur 0 -- -- 75
2020-09-06 19:00:00 21.6 8 Sudoeste 24 Sur 0 -- -- 74
2020-09-06 18:00:00 23.3 9 Norte 19 Norte 0 -- -- 64
2020-09-06 17:00:00 22.5 8 Oeste 16 Oeste 0 -- -- 72
2020-09-06 16:00:00 22.7 8 Sudoeste 17 Sudoeste 0 -- -- 71
2020-09-06 15:00:00 22.2 7 Sudoeste 18 Sudoeste 0 -- -- 70
2020-09-06 14:00:00 21.8 7 Oeste 19 Oeste 0 -- -- 74
2020-09-06 13:00:00 20.8 8 Sudoeste 17 Sudoeste 0 -- -- 77
2020-09-06 12:00:00 20.8 9 Noroeste 17 Noroeste 0 -- -- 76
2020-09-06 11:00:00 19.5 4 Sudoeste 22 Norte 0 -- -- 81
2020-09-06 10:00:00 19.6 17 Norte 26 Norte 0 -- -- 69
2020-09-06 09:00:00 17.8 10 Nordeste 21 Nordeste 0 -- -- 57
2020-09-06 08:00:00 16.3 5 Nordeste 19 Nordeste 0 -- -- 70
2020-09-06 07:00:00 17 11 Nordeste 18 Nordeste 0 -- -- 61
2020-09-06 06:00:00 17 15 Este 20 Este 0 -- -- 63
2020-09-06 05:00:00 16.5 9 Nordeste 20 Nordeste 0 -- -- 64
2020-09-06 04:00:00 16.7 6 Nordeste 19 Nordeste 0 -- -- 68
2020-09-06 03:00:00 17 12 Nordeste 20 Nordeste 0 -- -- 69
2020-09-06 02:00:00 17.3 8 Nordeste 24 Nordeste 0 -- -- 64
2020-09-06 01:00:00 17.1 17 Nordeste 25 Nordeste 0 -- -- 77
2020-09-06 00:00:00 16.9 11 Este 23 Nordeste 0 -- -- 83
2020-09-05 23:00:00 17.3 17 Nordeste 28 Norte 0 -- -- 81
2020-09-05 22:00:00 17.7 19 Nordeste 26 Nordeste 0 -- -- 79
2020-09-05 21:00:00 19.4 9 Nordeste 21 Este 0 -- -- 65
2020-09-05 20:00:00 20.6 12 Nordeste 23 Norte 0 -- -- 74
2020-09-05 19:00:00 21.3 15 Norte 24 Norte 0 -- -- 69
2020-09-05 18:00:00 22.5 12 Norte 22 Noroeste 0 -- -- 64
2020-09-05 17:00:00 22.7 11 Norte 20 Norte 0 -- -- 67
2020-09-05 16:00:00 23.2 11 Norte 24 Norte 0 -- -- 62
2020-09-05 15:00:00 23.2 10 Norte 27 Norte 0 -- -- 56
2020-09-05 14:00:00 22.4 9 Norte 23 Nordeste 0 -- -- 62
2020-09-05 13:00:00 21.9 13 Norte 22 Norte 0 -- -- 63
2020-09-05 12:00:00 22 5 Norte 18 Norte 0 -- -- 60
2020-09-05 11:00:00 20.6 8 Norte 23 Norte 0 -- -- 63
2020-09-05 10:00:00 19 13 Norte 19 Norte 0 -- -- 70
2020-09-05 09:00:00 17.4 8 Nordeste 26 Nordeste 0 -- -- 72
2020-09-05 08:00:00 16.9 14 Nordeste 27 Nordeste 0 -- -- 76
2020-09-05 07:00:00 16.7 18 Nordeste 26 Nordeste 0 -- -- 78
2020-09-05 06:00:00 16.9 19 Nordeste 28 Este 0 -- -- 76
2020-09-05 05:00:00 16.7 21 Nordeste 30 Nordeste 0 -- -- 84
2020-09-05 04:00:00 16.7 17 Nordeste 29 Nordeste 0 -- -- 88
2020-09-05 03:00:00 16.9 20 Nordeste 27 Nordeste 0 -- -- 90
2020-09-05 02:00:00 17.3 15 Nordeste 24 Nordeste 0 -- -- 91
2020-09-05 01:00:00 17.8 13 Nordeste 23 Este 0 -- -- 90
2020-09-05 00:00:00 18.1 8 Nordeste 15 Este 0 -- -- 90
2020-09-04 23:00:00 18.6 7 Nordeste 18 Nordeste 0 -- -- 85
2020-09-04 22:00:00 19.2 3 Nordeste 10 Nordeste 0 -- -- 87
2020-09-04 21:00:00 19.6 6 Sur 17 Norte 0 -- -- 89
2020-09-04 20:00:00 20.8 8 Norte 14 Sur 0 -- -- 83
2020-09-04 19:00:00 21.2 10 Sur 15 Sudoeste 0 -- -- 82
2020-09-04 18:00:00 26.2 6 Oeste 12 Noroeste 0 -- -- 61
2020-09-04 17:00:00 26 5 Sudoeste 13 Sudoeste 0 -- -- 62
2020-09-04 16:00:00 26.7 8 Oeste 13 Sudoeste 0 -- -- 59
2020-09-04 15:00:00 24.3 8 Sur 13 Sudoeste 0 -- -- 68
2020-09-04 14:00:00 24.8 6 Sudoeste 13 Sur 0 -- -- 65
2020-09-04 13:00:00 27.7 8 Oeste 14 Oeste 0 -- -- 55
2020-09-04 12:00:00 27.2 5 Sudoeste 12 Sudoeste 0 -- -- 54
2020-09-04 11:00:00 27.8 5 Oeste 9 Sudoeste 0 -- -- 26
2020-09-04 10:00:00 25.4 3 Sur 5 Sur 0 -- -- 19
2020-09-04 09:00:00 22.3 2 Este 5 Este 0 -- -- 24
2020-09-04 08:00:00 20.5 2 Sudeste 5 Este 0 -- -- 26
2020-09-04 07:00:00 18.3 5 Nordeste 11 Este 0 -- -- 33
2020-09-04 06:00:00 15.4 9 Nordeste 13 Nordeste 0 -- -- 61
2020-09-04 05:00:00 16.4 3 Sur 6 Sur 0 -- -- 93
2020-09-04 04:00:00 16.6 4 Sur 8 Sur 0 -- -- 91
2020-09-04 03:00:00 16.8 0 Calma -- -- 0 -- -- 89
2020-09-04 02:00:00 17.7 0 Calma 8 Sur 0 -- -- 89
2020-09-04 01:00:00 17.8 2 Norte 6 Sur 0 -- -- 77
2020-09-04 00:00:00 18.5 2 Sur 9 Sur 0 -- -- 91
2020-09-03 23:00:00 19.3 3 Sur 5 Sur 0 -- -- 83
2020-09-03 22:00:00 21.2 3 Sudeste 9 Nordeste 0 -- -- 37
2020-09-03 21:00:00 22.1 4 Nordeste 6 Norte 0 -- -- 45
2020-09-03 20:00:00 24.5 0 Calma 11 Sudoeste 0 -- -- 51
2020-09-03 19:00:00 25.5 4 Sudoeste 13 Sur 0 -- -- 51
2020-09-03 18:00:00 25.6 7 Sudoeste 14 Sur 0 -- -- 56
2020-09-03 17:00:00 24.5 6 Oeste 17 Noroeste 0 -- -- 67
2020-09-03 16:00:00 23.9 8 Noroeste 17 Sudoeste 0 -- -- 70
2020-09-03 15:00:00 22.7 9 Sur 19 Sur 0 -- -- 73
2020-09-03 14:00:00 21.7 12 Sur 21 Sudoeste 0 -- -- 75
2020-09-03 13:00:00 22.8 8 Sur 14 Sudoeste 0 -- -- 72
2020-09-03 12:00:00 25.5 6 Sudoeste 12 Sur 0 -- -- 44
2020-09-03 11:00:00 23.7 5 Sudoeste 11 Sudoeste 0 -- -- 39
2020-09-03 10:00:00 21.1 2 Sur 6 Oeste 0 -- -- 45
2020-09-03 09:00:00 18 3 Nordeste 9 Este 0 -- -- 36
2020-09-03 08:00:00 16.4 7 Nordeste 10 Sur 0 -- -- 52
2020-09-03 07:00:00 17.9 0 Calma 8 Sur 0 -- -- 40
2020-09-03 06:00:00 19.4 4 Sur 6 Sudeste 0 -- -- 35
2020-09-03 05:00:00 19.3 0 Calma 5 Este 0 -- -- 35
2020-09-03 04:00:00 18.2 3 Sudeste 5 Sudeste 0 -- -- 40
2020-09-03 03:00:00 17.3 5 Sudeste 9 Sur 0 -- -- 50
2020-09-03 02:00:00 17.3 4 Sudeste 6 Sudeste 0 -- -- 68
2020-09-03 01:00:00 17.7 2 Sur 6 Sur 0 -- -- 89
2020-09-03 00:00:00 18.5 5 Sudoeste 11 Sudoeste 0 -- -- 91
2020-09-02 23:00:00 18.6 3 Sur 11 Sudoeste 0 -- -- 91
2020-09-02 22:00:00 18.9 2 Sudoeste 11 Norte 0 -- -- 89
2020-09-02 21:00:00 19 3 Sudeste 15 Sur 0 -- -- 90
2020-09-02 20:00:00 19.9 11 Sur 15 Sudoeste 0 -- -- 85
2020-09-02 19:00:00 22.3 5 Sudoeste 14 Sudoeste 0 -- -- 74
2020-09-02 18:00:00 22.3 10 Sudoeste 15 Sur 0 -- -- 72
2020-09-02 17:00:00 23.2 8 Sudoeste 18 Sur 0 -- -- 66
2020-09-02 16:00:00 22.9 8 Sudoeste 15 Sudoeste 0 -- -- 70
2020-09-02 15:00:00 22.1 8 Sudoeste 16 Sur 0 -- -- 72
2020-09-02 14:00:00 22 9 Sudoeste 17 Sur 0 -- -- 73
2020-09-02 13:00:00 21.7 9 Sudoeste 17 Sudoeste 0 -- -- 72
2020-09-02 12:00:00 20.8 8 Sur 14 Sudoeste 0 -- -- 78
2020-09-02 11:00:00 19.4 6 Sur 13 Sudoeste 0 -- -- 81
2020-09-02 10:00:00 17.8 6 Sur 9 Sudoeste 0.2 -- -- 86
2020-09-02 09:00:00 15.9 4 Sudeste 10 Sur 0 -- -- 93
2020-09-02 08:00:00 15.5 6 Sudeste 9 Sudeste 0 -- -- 92
2020-09-02 07:00:00 15.5 3 Sudeste 9 Este 0 -- -- 92
2020-09-02 06:00:00 15.4 6 Sudeste 8 Sudeste 0 -- -- 90
2020-09-02 05:00:00 16.1 0 Calma 5 Este 0 -- -- 91
2020-09-02 04:00:00 15.9 5 Este 8 Nordeste 0 -- -- 88
2020-09-02 03:00:00 15.7 4 Sudeste 6 Sudeste 0 -- -- 87
2020-09-02 02:00:00 16.3 2 Sudeste 5 Sudeste 0 -- -- 85
2020-09-02 01:00:00 16.2 2 Sudeste 8 Sur 0 -- -- 83
2020-09-02 00:00:00 16.7 0 Calma 8 Nordeste 0 -- -- 82
2020-09-01 23:00:00 17.2 4 Sudeste 11 Sur 0 -- -- 87
2020-09-01 22:00:00 17.9 2 Sur 4 Sudoeste 0 -- -- 86
2020-09-01 21:00:00 18.8 0 Calma 9 Sudoeste 0 -- -- 79
2020-09-01 20:00:00 20.7 6 Oeste 13 Oeste 0 -- -- 74
2020-09-01 19:00:00 21.4 5 Sudoeste 14 Sudoeste 0 -- -- 68
2020-09-01 18:00:00 22.4 7 Sudoeste 18 Sudoeste 0 -- -- 62
2020-09-01 17:00:00 22.7 11 Sudoeste 21 Sudoeste 0 -- -- 61
2020-09-01 16:00:00 22.3 10 Sudoeste 21 Sudoeste 0 -- -- 64
2020-09-01 15:00:00 22.2 10 Sudoeste 21 Sur 0 -- -- 62
2020-09-01 14:00:00 21.5 11 Sudoeste 22 Sudoeste 0 -- -- 65
2020-09-01 13:00:00 21.1 12 Sur 19 Sur 0 -- -- 66
2020-09-01 12:00:00 20.6 10 Sudoeste 17 Sur 0 -- -- 66
2020-09-01 11:00:00 19.4 6 Sudoeste 10 Sudoeste 0 -- -- 69
2020-09-01 10:00:00 17.7 3 Sudeste 9 Sudoeste 0 -- -- 73
2020-09-01 09:00:00 14.9 4 Sudeste 10 Sudeste 0 -- -- 79
2020-09-01 08:00:00 14.1 6 Sudeste 10 Sudeste 0 -- -- 83
2020-09-01 07:00:00 14.7 3 Sudeste 5 Sudeste 0 -- -- 82
2020-09-01 06:00:00 14.4 3 Este 7 Sudeste 0 -- -- 82
2020-09-01 05:00:00 14.5 3 Sudeste 8 Sudeste 0 -- -- 82
2020-09-01 04:00:00 14.5 4 Sudeste 9 Sudeste 0 -- -- 82
2020-09-01 03:00:00 14.8 4 Sudeste 9 Sudeste 0 -- -- 84
2020-09-01 02:00:00 15.5 4 Sur 8 Sur 0 -- -- 88
2020-09-01 01:00:00 15.7 4 Sur 7 Sur 0 -- -- 87
2020-09-01 00:00:00 16.4 4 Sur 8 Sur 0 -- -- 85
2020-08-31 23:00:00 17.2 5 Sur 9 Sudoeste 0 -- -- 83
2020-08-31 22:00:00 17.2 6 Sudoeste 12 Sur 0 -- -- 85
2020-08-31 21:00:00 17.7 4 Sudoeste 9 Sudoeste 0 -- -- 82
2020-08-31 20:00:00 19.6 6 Sudoeste 15 Sudoeste 0 -- -- 71
2020-08-31 19:00:00 20.9 9 Sudoeste 17 Sur 0 -- -- 67
2020-08-31 18:00:00 21.5 9 Oeste 18 Oeste 0 -- -- 63
2020-08-31 17:00:00 21.7 10 Sudoeste 20 Sur 0 -- -- 62
2020-08-31 16:00:00 21.6 10 Oeste 21 Sur 0 -- -- 59
2020-08-31 15:00:00 21.6 12 Sudoeste 22 Sudoeste 0 -- -- 60
2020-08-31 14:00:00 21.3 9 Oeste 19 Sudoeste 0 -- -- 62
2020-08-31 13:00:00 20.9 10 Sudoeste 19 Oeste 0 -- -- 64
2020-08-31 12:00:00 20.3 10 Sudoeste 18 Sudoeste 0 -- -- 63
2020-08-31 11:00:00 19 7 Sudoeste 13 Sur 0 -- -- 62
2020-08-31 10:00:00 17.5 5 Oeste 9 Sudoeste 0 -- -- 68
2020-08-31 09:00:00 15 0 Calma 12 Este 0 -- -- 73
2020-08-31 08:00:00 14.7 0 Calma 9 Sudeste 0 -- -- 78
2020-08-31 07:00:00 14.5 4 Nordeste 7 Nordeste 0 -- -- 75
2020-08-31 06:00:00 14.4 4 Este 10 Sudeste 0 -- -- 78
2020-08-31 05:00:00 14.6 7 Sudeste 12 Sudeste 0 -- -- 76
2020-08-31 04:00:00 14.9 6 Sudeste 13 Sudeste 0 -- -- 78
2020-08-31 03:00:00 14.9 3 Este 10 Este 0 -- -- 80
2020-08-31 02:00:00 15.1 4 Este 9 Sudeste 0 -- -- 76
2020-08-31 01:00:00 15.7 0 Calma 10 Nordeste 0 -- -- 75
2020-08-31 00:00:00 16 6 Este 12 Este 0 -- -- 75
2020-08-30 23:00:00 17.1 3 Noroeste 12 Sur 0 -- -- 77
2020-08-30 22:00:00 18 4 Sudeste 31 Nordeste 0 -- -- 70
2020-08-30 21:00:00 18.4 6 Sur 54 Nordeste 0 -- -- 65
2020-08-30 20:00:00 20.1 20 Este 56 Nordeste 0 -- -- 49
2020-08-30 19:00:00 20.8 30 Nordeste 60 Nordeste 0 -- -- 50
2020-08-30 18:00:00 20.5 10 Este 39 Este 0 -- -- 58
2020-08-30 17:00:00 21.5 12 Sudoeste 69 Este 0 -- -- 56
2020-08-30 16:00:00 22.9 18 Este 50 Nordeste 0 -- -- 51
2020-08-30 15:00:00 22.7 13 Sudoeste 26 Sur 0 -- -- 52
2020-08-30 14:00:00 22.4 14 Sudoeste 26 Sur 0 -- -- 52
2020-08-30 13:00:00 22 10 Sur 24 Sur 0 -- -- 55
2020-08-30 12:00:00 20.8 10 Sudoeste 22 Sur 0 -- -- 63
2020-08-30 11:00:00 19.8 7 Sudoeste 54 Nordeste 0 -- -- 63
2020-08-30 10:00:00 18.6 30 Nordeste 63 Nordeste 0 -- -- 56
2020-08-30 09:00:00 16.5 3 Sudoeste 15 Noroeste 0 -- -- 77
2020-08-30 08:00:00 15.8 8 Nordeste 18 Norte 0 -- -- 77
2020-08-30 07:00:00 15.6 4 Norte 19 Sudoeste 0 -- -- 82
2020-08-30 06:00:00 15.7 4 Este 8 Este 0 -- -- 84
2020-08-30 05:00:00 15.8 3 Este 11 Nordeste 0 -- -- 74
2020-08-30 04:00:00 16.5 11 Nordeste 28 Nordeste 0 -- -- 68
2020-08-30 03:00:00 16.8 14 Nordeste 30 Norte 0 -- -- 79
2020-08-30 02:00:00 17.6 4 Sur 36 Este 0 -- -- 85
2020-08-30 01:00:00 18.3 3 Oeste 10 Sur 0 -- -- 87
2020-08-30 00:00:00 18.8 4 Sur 37 Este 0 -- -- 87
2020-08-29 23:00:00 18.7 4 Noroeste 11 Sudoeste 0 -- -- 70
2020-08-29 22:00:00 20 5 Sur 32 Nordeste 0 -- -- 85
2020-08-29 21:00:00 23 15 Nordeste 40 Este 0 -- -- 36
2020-08-29 20:00:00 21.9 4 Sudoeste 16 Sudoeste 0 -- -- 75
2020-08-29 19:00:00 23.5 9 Sudoeste 15 Sur 0 -- -- 64
2020-08-29 18:00:00 24.1 8 Sudoeste 20 Sur 0 -- -- 61
2020-08-29 17:00:00 24.1 9 Sudoeste 21 Sudoeste 0 -- -- 64
2020-08-29 16:00:00 25 11 Sudoeste 19 Sur 0 -- -- 58
2020-08-29 15:00:00 25 10 Sudoeste 23 Sudoeste 0 -- -- 58
2020-08-29 14:00:00 24.5 13 Sudoeste 23 Sudoeste 0 -- -- 56
2020-08-29 13:00:00 25.6 11 Sudoeste 20 Sudoeste 0 -- -- 43
2020-08-29 12:00:00 21.5 14 Sur 20 Sur 0 -- -- 73
2020-08-29 11:00:00 22.7 8 Noroeste 16 Oeste 0 -- -- 53
2020-08-29 10:00:00 22.7 9 Sudoeste 20 Norte 0 -- -- 51
2020-08-29 09:00:00 19.7 5 Norte 14 Noroeste 0 -- -- 62
2020-08-29 08:00:00 20.4 4 Sur 12 Sudeste 0 -- -- 60
2020-08-29 07:00:00 20.9 5 Sudoeste 13 Noroeste 0 -- -- 60
2020-08-29 06:00:00 21.7 4 Nordeste 13 Norte 0 -- -- 46
2020-08-29 05:00:00 22.6 4 Sudeste 10 Sur 0 -- -- 54
2020-08-29 04:00:00 23.6 7 Norte 17 Nordeste 0 -- -- 31
2020-08-29 03:00:00 22.9 4 Norte 12 Sur 0 -- -- 36
2020-08-29 02:00:00 25.3 6 Sur 29 Norte 0 -- -- 51
2020-08-29 01:00:00 29.8 10 Nordeste 26 Nordeste 0 -- -- 12
2020-08-29 00:00:00 28.3 8 Norte 20 Norte 0 -- -- 12
2020-08-28 23:00:00 27.3 5 Este 12 Este 0 -- -- 30
2020-08-28 22:00:00 27 4 Sudoeste 13 Nordeste 0 -- -- 37
2020-08-28 21:00:00 28.1 5 Nordeste 12 Nordeste 0 -- -- 29
2020-08-28 20:00:00 29.1 4 Sur 9 Sur 0 -- -- 32
2020-08-28 19:00:00 30.6 5 Sudoeste 10 Sur 0 -- -- 32
2020-08-28 18:00:00 31.6 6 Oeste 14 Sur 0 -- -- 34
2020-08-28 17:00:00 31.4 9 Sur 13 Sudoeste 0 -- -- 31
2020-08-28 16:00:00 31.1 8 Sudoeste 13 Sur 0 -- -- 39
2020-08-28 15:00:00 30.7 8 Sur 14 Sur 0 -- -- 37
2020-08-28 14:00:00 31.8 8 Sudoeste 13 Sudoeste 0 -- -- 33
2020-08-28 13:00:00 33 6 Sudoeste 13 Sur 0 -- -- 31
2020-08-28 12:00:00 34.1 5 Sudoeste 10 Sur 0 -- -- 25
2020-08-28 11:00:00 33.9 5 Oeste 10 Sudoeste 0 -- -- 19
2020-08-28 10:00:00 32.9 4 Sur 9 Sur 0 -- -- 22
2020-08-28 09:00:00 30.4 2 Sudoeste 9 Sudeste 0 -- -- 24
2020-08-28 08:00:00 29.6 3 Este 10 Sudeste 0 -- -- 23
2020-08-28 07:00:00 29.9 4 Sudeste 14 Sudeste 0 -- -- 23
2020-08-28 06:00:00 30.9 2 Nordeste 8 Sudeste 0 -- -- 22
2020-08-28 05:00:00 30.6 4 Este 9 Sudeste 0 -- -- 23
2020-08-28 04:00:00 30.2 2 Sudeste 8 Norte 0 -- -- 23
2020-08-28 03:00:00 30.6 0 Calma 6 Este 0 -- -- 25
2020-08-28 02:00:00 31.3 2 Norte 8 Este 0 -- -- 23
2020-08-28 01:00:00 30.9 4 Este 9 Este 0 -- -- 25
2020-08-28 00:00:00 31.2 3 Este 10 Este 0 -- -- 27
2020-08-27 23:00:00 31.7 3 Sudoeste 9 Este 0 -- -- 29
2020-08-27 22:00:00 32.1 0 Calma 6 Sudeste 0 -- -- 28
2020-08-27 21:00:00 32.8 3 Sur 7 Sur 0 -- -- 30
2020-08-27 20:00:00 34.4 5 Nordeste 13 Norte 0 -- -- 29
2020-08-27 19:00:00 35.1 5 Sur 10 Sur 0 -- -- 31
2020-08-27 18:00:00 35.9 6 Sudoeste 13 Sur 0 -- -- 27
2020-08-27 17:00:00 35.9 8 Sudoeste 14 Sur 0 -- -- 28
2020-08-27 16:00:00 35.3 8 Sudoeste 15 Sudoeste 0 -- -- 28
2020-08-27 15:00:00 35.7 6 Sudoeste 20 Norte 0 -- -- 28
2020-08-27 14:00:00 36 7 Sudoeste 26 Noroeste 0 -- -- 28
2020-08-27 13:00:00 34.9 4 Sudoeste 20 Norte 0 -- -- 29
2020-08-27 12:00:00 36.3 9 Norte 21 Nordeste 0 -- -- 25
2020-08-27 11:00:00 35.2 4 Oeste 9 Sudoeste 0 -- -- 25
2020-08-27 10:00:00 33.6 3 Sur 4 Sur 0 -- -- 26
2020-08-27 09:00:00 31.1 0 Calma 6 Sudeste 0 -- -- 29
2020-08-27 08:00:00 30.4 4 Sudeste 16 Nordeste 0 -- -- 30
2020-08-27 07:00:00 31 11 Nordeste 17 Nordeste 0 -- -- 30
2020-08-27 06:00:00 30.1 6 Nordeste 9 Este 0 -- -- 30
2020-08-27 05:00:00 29.5 7 Sudeste 9 Sudeste 0 -- -- 31
2020-08-27 04:00:00 29.7 6 Nordeste 10 Nordeste 0 -- -- 33
2020-08-27 03:00:00 29.8 4 Nordeste 7 Nordeste 0 -- -- 32
2020-08-27 02:00:00 30.7 0 Calma 8 Sudeste 0 -- -- 31
2020-08-27 01:00:00 30.9 4 Sudeste 9 Sudeste 0 -- -- 30
2020-08-27 00:00:00 31.4 7 Sudeste 11 Sudeste 0 -- -- 29
2020-08-26 23:00:00 31.8 3 Sudeste 17 Sur 0 -- -- 31
2020-08-26 22:00:00 31.7 8 Sur 14 Sur 0 -- -- 32
2020-08-26 21:00:00 32 8 Sur 13 Sur 0 -- -- 32
2020-08-26 20:00:00 32 3 Sur 8 Oeste 0 -- -- 31
2020-08-26 19:00:00 33.2 5 Sudoeste 12 Sudoeste 0 -- -- 30
2020-08-26 18:00:00 34.5 7 Oeste 13 Oeste 0 -- -- 28
2020-08-26 17:00:00 35.2 9 Oeste 16 Oeste 0 -- -- 24
2020-08-26 16:00:00 37 10 Sudoeste 22 Sudoeste 0 -- -- 20
2020-08-26 15:00:00 36.5 10 Sudoeste 17 Sudoeste 0 -- -- 19
2020-08-26 14:00:00 36.9 6 Noroeste 17 Oeste 0 -- -- 25
2020-08-26 13:00:00 38.2 11 Norte 18 Norte 0 -- -- 15
2020-08-26 12:00:00 36.3 5 Oeste 17 Sudoeste 0 -- -- 27
2020-08-26 11:00:00 36.8 7 Norte 21 Norte 0 -- -- 15
2020-08-26 10:00:00 34.2 3 Sur 9 Sur 0 -- -- 16
2020-08-26 09:00:00 33.1 2 Nordeste 9 Este 0 -- -- 16
2020-08-26 08:00:00 31.3 3 Sur 13 Sudeste 0 -- -- 17
2020-08-26 07:00:00 31.4 0 Calma 9 Sudeste 0 -- -- 17
2020-08-26 06:00:00 31.7 4 Este 12 Nordeste 0 -- -- 17
2020-08-26 05:00:00 31.1 0 Calma 7 Sudeste 0 -- -- 18
2020-08-26 04:00:00 31.3 4 Este 12 Este 0 -- -- 18
2020-08-26 03:00:00 31.3 9 Nordeste 12 Nordeste 0 -- -- 18
2020-08-26 02:00:00 31.1 6 Nordeste 12 Nordeste 0 -- -- 19
2020-08-26 01:00:00 30.7 8 Este 12 Nordeste 0 -- -- 20
2020-08-26 00:00:00 31.1 9 Nordeste 19 Nordeste 0 -- -- 20
2020-08-25 23:00:00 31.2 13 Nordeste 22 Nordeste 0 -- -- 20
2020-08-25 22:00:00 30.6 6 Nordeste 18 Nordeste 0 -- -- 21
2020-08-25 21:00:00 31.3 11 Nordeste 16 Nordeste 0 -- -- 20
2020-08-25 20:00:00 33 9 Norte 15 Norte 0 -- -- 22
2020-08-25 19:00:00 34 9 Norte 15 Norte 0 -- -- 23
2020-08-25 18:00:00 32 6 Norte 11 Sudoeste 0 -- -- 30
2020-08-25 17:00:00 29.3 5 Oeste 14 Oeste 0 -- -- 51
2020-08-25 16:00:00 31.3 5 Sudoeste 14 Oeste 0 -- -- 30
2020-08-25 15:00:00 31.2 6 Oeste 13 Oeste 0 -- -- 22
2020-08-25 14:00:00 28.4 6 Sudoeste 14 Sur 0 -- -- 53
2020-08-25 13:00:00 28.7 4 Sur 14 Sudoeste 0 -- -- 36
2020-08-25 12:00:00 25.8 6 Sur 11 Sudoeste 0 -- -- 49
2020-08-25 11:00:00 24.9 4 Sur 12 Sudoeste 0 -- -- 50
2020-08-25 10:00:00 26.2 3 Sudoeste 11 Sudoeste 0 -- -- 41
2020-08-25 09:00:00 24.9 4 Nordeste 8 Nordeste 0 -- -- 25
2020-08-25 08:00:00 24.9 3 Sur 5 Sur 0 -- -- 24
2020-08-25 07:00:00 25.3 0 Calma 8 Nordeste 0 -- -- 24
2020-08-25 06:00:00 25.6 5 Nordeste 8 Norte 0 -- -- 23
2020-08-25 05:00:00 25 0 Calma 8 Este 0 -- -- 25
2020-08-25 04:00:00 23.9 4 Sudeste 10 Sudeste 0 -- -- 26
2020-08-25 03:00:00 24.2 0 Calma 4 Este 0 -- -- 27
2020-08-25 02:00:00 23.5 2 Este 6 Sudeste 0 -- -- 31
2020-08-25 01:00:00 23.2 0 Calma 6 Sudeste 0 -- -- 33
2020-08-25 00:00:00 23.4 2 Sudeste 5 Noroeste 0 -- -- 35
2020-08-24 23:00:00 23.2 3 Sudeste 7 Sudeste 0 -- -- 36
2020-08-24 22:00:00 23.3 3 Nordeste 8 Noroeste 0 -- -- 37
2020-08-24 21:00:00 24.3 3 Sur 10 Sur 0 -- -- 39
2020-08-24 20:00:00 26.2 4 Sur 9 Sudoeste 0 -- -- 58
2020-08-24 19:00:00 27.7 5 Sur 13 Sudoeste 0 -- -- 43
2020-08-24 18:00:00 28.3 6 Sudoeste 15 Sur 0 -- -- 37
2020-08-24 17:00:00 29.1 6 Sudoeste 15 Oeste 0 -- -- 36
2020-08-24 16:00:00 29.2 6 Oeste 14 Oeste 0 -- -- 31
2020-08-24 15:00:00 29.4 8 Oeste 15 Noroeste 0 -- -- 32
2020-08-24 14:00:00 28.8 8 Oeste 15 Sudoeste 0 -- -- 27
2020-08-24 13:00:00 27.9 11 Sur 15 Sudoeste 0 -- -- 32
2020-08-24 12:00:00 27.5 7 Sur 11 Sudoeste 0 -- -- 35
2020-08-24 11:00:00 26.5 8 Sur 12 Sur 0 -- -- 33
2020-08-24 10:00:00 24.9 4 Sudoeste 5 Sudoeste 0 -- -- 34
2020-08-24 09:00:00 22.5 2 Nordeste 7 Nordeste 0 -- -- 36
2020-08-24 08:00:00 22 0 Calma 8 Sudeste 0 -- -- 36
2020-08-24 07:00:00 21.9 4 Sudeste 8 Sudeste 0 -- -- 33
2020-08-24 06:00:00 21.8 2 Sudeste 10 Norte 0 -- -- 36
2020-08-24 05:00:00 22.6 0 Calma 8 Sudeste 0 -- -- 40
2020-08-24 04:00:00 21.8 4 Sudeste 9 Sur 0 -- -- 35
2020-08-24 03:00:00 22.6 4 Sudeste 10 Norte 0 -- -- 37
2020-08-24 02:00:00 23.2 0 Calma 12 Nordeste 0 -- -- 41
2020-08-24 01:00:00 23.2 7 Nordeste 10 Nordeste 0 -- -- 40
2020-08-24 00:00:00 22.5 2 Sudeste 10 Nordeste 0 -- -- 42
2020-08-23 23:00:00 22.5 5 Norte 8 Norte 0 -- -- 46
2020-08-23 22:00:00 23.5 3 Sur 5 Este 0 -- -- 62
2020-08-23 21:00:00 25.5 0 Calma 6 Sur 0 -- -- 59
2020-08-23 20:00:00 28.6 4 Sudoeste 10 Sudoeste 0 -- -- 42
2020-08-23 19:00:00 29.3 7 Sur 13 Sur 0 -- -- 44
2020-08-23 18:00:00 29.6 4 Sudoeste 12 Oeste 0 -- -- 50
2020-08-23 17:00:00 28.7 6 Sudoeste 12 Sudoeste 0 -- -- 53
2020-08-23 16:00:00 31.1 6 Oeste 24 Norte 0 -- -- 45
2020-08-23 15:00:00 33.8 8 Noroeste 20 Norte 0 -- -- 29
2020-08-23 14:00:00 34.7 9 Norte 37 Norte 0 -- -- 22
2020-08-23 13:00:00 34.1 7 Noroeste 33 Norte 0 -- -- 17
2020-08-23 12:00:00 36.4 12 Nordeste 34 Nordeste 0 -- -- 11
2020-08-23 11:00:00 31.7 5 Sur 24 Nordeste 0 -- -- 17
2020-08-23 10:00:00 34 12 Nordeste 28 Nordeste 0 -- -- 12
2020-08-23 09:00:00 27.5 2 Este 8 Sudeste 0 -- -- 19
2020-08-23 08:00:00 27.5 4 Sudeste 9 Sudeste 0 -- -- 19
2020-08-23 07:00:00 27.3 3 Sudeste 12 Sudeste 0 -- -- 19
2020-08-23 06:00:00 27.5 3 Este 10 Sudeste 0 -- -- 19
2020-08-23 05:00:00 27.2 3 Este 9 Norte 0 -- -- 20
2020-08-23 04:00:00 27.4 4 Sudeste 10 Sudeste 0 -- -- 20
2020-08-23 03:00:00 27.3 4 Sudeste 10 Sudeste 0 -- -- 20
2020-08-23 02:00:00 27.6 5 Sudeste 8 Sudeste 0 -- -- 19
2020-08-23 01:00:00 27.7 4 Sur 11 Este 0 -- -- 19
2020-08-23 00:00:00 27.9 3 Sudeste 9 Sudeste 0 -- -- 19